Location: Ansan
(43.6898°N, 0.7731°E)
Time: 08:42:34
(UTC+00:00)

NOSS 0 Rocket - Pass Details

Date: 15 May 2026
Orbit: 936 x 952 km, 70.0° (Epoch: 6 June)

Event Time Altitude Azimuth Distance (km) Brightness Sun altitude
Rises 23:21:27 0° 333° (NNW) 3,612 8.1 -26.8°
Reaches altitude 10° 23:23:59 10° 333° (NNW) 2,662 7.2 -26.9°
Maximum altitude 23:30:11 89° 248° (WSW) 943 3.8 -27.0°
Enters shadow 23:30:48 74° 158° (SSE) 976 3.7 -27.0°
